星链-36592(STARLINK-36592)

导读

STARLINK-36592(NORAD编号68007)是美国太空探索技术公司(SpaceX)发射的星链(Starlink)卫星,隶属于星链低轨互联网星座项目,卫星平台型号为Starlink v1.5。 该卫星于2021年11月13日发射升空,运行在近地轨道,轨道倾角约53.192°,近地点约150千米、远地点约161千米,绕行周期约87.6分钟,目前处于工作状态,主要为全球提供高速低延迟的宽带互联网接入服务,支持流媒体、视频通话等应用场景。

基本信息
目录编号:
68007
目录名称:
STARLINK-36592
国际标识:
2026-039X
轨道中心:
EARTH
卫星名称:
星链-36592
卫星全名:
星链-36592(STARLINK-36592)
卫星状态:
在轨 (已飞行106 天)
发射日期:
2026-02-27 UTC
国别 :
美国 (US)
星等 :
--
轨道信息
数据来源 国际轨道数据 AOE轨道数据
星历时间 2026-06-11T23:44:52+0800
1天前
查看轨道信息
2026-06-11T11:00:00+0800
2天前
查看轨道信息
半长轴 6861.138km 6861.074km
偏心率 0.0002993 0.0000905
轨道倾角 42.987° 42.998°
近地点辐角 82.844° 208.977°
升交点赤经 238.318° 241.308°
平近点角 277.275° 106.829°
近地点 480.947km 482.316km
远地点 485.055km 483.558km
周期 94.266分钟 94.264分钟
每日圈数 15.275961 15.276177
详细信息
固有亮度:
5
最大亮度:
2.5
卫星平台:
Starlink V1.0
覆盖范围:
全球
运营商:
太空探索技术公司
运营商所在国:
美国
制造商(研发单位):
太空探索技术公司
制造商所在国:
美国
使用方式:
暂无
卫星简介
Starlink 计划是 SpaceX 推出的全球卫星互联网项目,通过发射低轨道卫星,为全球尤其是偏远地区提供高速、低延迟的互联网服务。自 2019 年起,Starlink 已部署数千颗卫星,旨在缩小全球数字鸿沟,推动互联网普及。该项目还为军事、航空等行业提供通信支持,带来广泛经济效益。
2D轨道图
3D轨道图
轨道高度分析图
轨道倾角分析图
轨道综合分析图
查看轨道综合分析图